Home > Weather > Walsall > Past weeks

Flag for United Kingdom Weather for the Past 2 Weeks in Walsall, England, United Kingdom

Now
45 °F

Passing clouds.


Feels Like: 38 °F
Forecast: N/A
Wind: 14 mph from Southwest

Location: Birmingham / Airport

Current Time: Feb 7, 2016 at 11:57:14 PM

Latest Report: Feb 7, 2016 at 10:50 PM


Visibility: N/A

Pressure: 28.94 "Hg

Humidity: 87%

Dew point: 41 °F

Location of WalsallLocation

Historic Weather in Walsall — Graph

°F

Walsall Temperature Yesterday

Maximum temperature yesterday: 52 °F (at 11:50 AM)
Minimum temperature yesterday: 41 °F (at 11:50 PM)
Average temperature yesterday: 47 °F

High & Low Weather Summary for the Past Weeks

 TemperatureHumidityPressure
High57 °F (Jan 25, 2:50 PM)100% (Jan 23, 10:20 PM)30.33 "Hg (Jan 23, 10:20 PM)
Low36 °F (Jan 28, 7:20 AM)53% (Feb 2, 12:20 PM)28.94 "Hg (Feb 7, 8:50 PM)
Average47 °F87%29.84 "Hg
* Reported Jan 23 10:20 PM — Feb 7 10:20 PM, Walsall, Weather by CustomWeather, © 2016

Note: Actual official high and low records may vary slightly from our data, if they occured in-between our weather recording intervals... More about our weather records

Advertising

Walsall Weather History for the Previous 24 Hours

 ConditionsComfort  
Time TempWeatherWind HumidityBarometerVisibility
10:20 PM
Sun, Feb 7
45 °FClear.13 mph87%28.94 "HgN/A
9:50 PM46 °FHeavy rain. Overcast.18 mph100%28.97 "Hg4 mi
9:20 PM48 °FLight rain. Partly cloudy.16 mph94%28.94 "HgN/A
8:50 PM48 °FPartly cloudy.15 mph94%28.94 "HgN/A
8:20 PM46 °FLight rain. Partly cloudy.14 mph93%28.97 "HgN/A
7:50 PM45 °FSprinkles. Passing clouds.18 mph93%29.00 "HgN/A
7:20 PM43 °FSprinkles. Passing clouds.18 mph93%29.03 "HgN/A
6:50 PM43 °FSprinkles. Passing clouds.17 mph93%29.09 "HgN/A
6:20 PM43 °FPartly cloudy.17 mph87%29.12 "HgN/A
5:50 PM41 °FLight rain. Passing clouds.16 mph93%29.15 "HgN/A
5:20 PM43 °FLight rain. Passing clouds.17 mph87%29.18 "HgN/A
4:50 PM43 °FLight rain. Partly sunny.14 mph87%29.21 "HgN/A
4:20 PM43 °FPassing clouds.12 mph87%29.21 "HgN/A
3:50 PM43 °FPassing clouds.15 mph81%29.21 "HgN/A
3:20 PM45 °FPassing clouds.15 mph81%29.24 "HgN/A
2:50 PM45 °FScattered clouds.12 mph81%29.24 "HgN/A
2:20 PM45 °FScattered clouds.12 mph81%29.24 "HgN/A
1:50 PM45 °FScattered clouds.12 mph87%29.27 "HgN/A
1:20 PM45 °FRain showers. Partly sunny.15 mph76%29.27 "HgN/A
12:50 PM46 °FScattered clouds.12 mph71%29.27 "HgN/A
12:20 PM46 °FPartly sunny.14 mph76%29.27 "HgN/A
11:50 AM45 °FPartly sunny.14 mph81%29.24 "HgN/A
11:20 AM45 °FScattered clouds.13 mph81%29.24 "HgN/A
10:50 AM43 °FScattered clouds.12 mph87%29.24 "HgN/A
10:20 AM43 °FScattered clouds.13 mph87%29.24 "HgN/A
9:50 AM41 °FBroken clouds.13 mph93%29.21 "HgN/A
9:20 AM41 °FScattered showers. Scattered clouds.14 mph87%29.21 "HgN/A
8:50 AM39 °FScattered showers. Partly sunny.12 mph93%29.21 "HgN/A
8:20 AM39 °FPassing clouds.14 mph93%29.18 "HgN/A
7:50 AM39 °FPartly sunny.10 mph93%29.18 "HgN/A
7:20 AM39 °FPassing clouds.10 mph93%29.18 "HgN/A
6:50 AM39 °FPassing clouds.10 mph93%29.18 "HgN/A
6:20 AM39 °FPassing clouds.9 mph93%29.15 "HgN/A
5:50 AM39 °FPassing clouds.8 mph93%29.15 "HgN/A
5:20 AM39 °FPassing clouds.6 mph93%29.15 "HgN/A
4:50 AM39 °FPassing clouds.8 mph93%29.15 "HgN/A
4:20 AM39 °FClear.8 mph93%29.15 "Hg10 mi
3:20 AM39 °FClear.9 mph93%29.12 "Hg10 mi
2:50 AM41 °FClear.8 mph93%29.12 "Hg10 mi
2:20 AM41 °FPassing clouds.7 mph93%29.12 "HgN/A
1:20 AM41 °FClear.8 mph93%29.09 "Hg10 mi
12:50 AM41 °FClear.8 mph93%29.09 "Hg10 mi
12:20 AM41 °FPassing clouds.7 mph93%29.09 "HgN/A
11:50 PM
Sat, Feb 6
41 °FPassing clouds.7 mph100%29.09 "HgN/A
11:20 PM43 °FPassing clouds.8 mph93%29.06 "HgN/A
Weather by CustomWeather, © 2016

See weather overviewHow to use our weather pages